Terminal Aerodrome Forecast
Issued by NWS

Home | Current Version | Previous Version | Graphics & Text | Print | Product List | Glossary On
Versions: 1 2 3 4 5 6 7 8 9 10 11 12 13 14 15 16 17 18 19 20
279
FTUS43 KABR 121531 AAB
TAFATY
TAF AMD
KATY 121531Z 1216/1312 23008KT P6SM SCT024
     FM121800 25010KT P6SM BKN080
     FM130800 29013G20KT P6SM BKN200=

USA.gov is the U.S. government's official web portal to all federal, state and local government web resources and services.